Location: Atherton
(17.2661°S, 145.4859°E)
Time: 11:27:47
(UTC+10:00)

Vanguard 1 - Pass Details

Date: 28 June 2025
Orbit: 649 x 3822 km, 34.2° (Epoch: 05 July)

Event Time Altitude Azimuth Distance (km) Brightness Sun altitude
Rises 22:05:45 0° 247° (WSW) 6,060 14.5 -57.7°
Reaches altitude 10° 22:11:25 10° 235° (SW) 4,423 13.6 -59.0°
Enters shadow 22:13:07 14° 230° (SW) 3,939 13.2 -59.4°
Maximum altitude 22:19:54 25° 184° (S) 2,455 - -60.9°
Drops below altitude 10° 22:25:25 10° 130° (SE) 2,784 - -62.2°
Sets 22:28:03 0° 115° (ESE) 3,461 - -62.8°
